Location: ????
(30.1475°N, 31.1342°E)
Time: 20:23:02
(UTC+00:00)

Cosmos 1833 Rocket - Visible Passes

Search period start: 30 March 2023 00:00
Search period end: 09 April 2023 00:00
Orbit: 831 x 841 km, 71.0° (Epoch: 30 March)

Date Brightness Start Highest point End Pass type
(mag) Time Alt. Az. Time Alt. Az. Time Alt. Az.
06 Apr 5.3 19:22:52 10° NNE 19:22:58 10° NNE 19:22:58 10° NNE visible
07 Apr 5.1 19:06:14 10° NNE 19:06:41 12° NNE 19:06:41 12° NNE visible
08 Apr 5.0 18:49:37 10° NNE 18:50:27 13° NNE 18:50:27 13° NNE visible
08 Apr 5.6 20:32:07 10° NNW 20:32:09 10° NNW 20:32:09 10° NNW visible
